SCP
0 0 0 0 0 0 0 1 1 1 1 2 2 1 2 2 2 3 3 4 4 4 5 6 6 6 6 6 5 4 3 3 2 3 4 5 5 5 5 5 5 5 4 4
0 0 0 0 0 0 1 1 1 1 1 1 2 2 2 2 2 3 3 3 4 5 5 6 6 6 6 6 6 5 4 3 3 3 4 5 5 5 5 5 5 4 4 3
0 0 0 0 0 1 1 1 1 1 1 1 2 2 2 2 2 3 3 3 4 4 5 6 6 6 7 6 6 5 4 3 3 3 4 5 5 4 4 4 3 3 3 3
0 0 0 0 1 1 1 1 1 1 1 2 2 2 2 2 3 3 3 3 4 4 5 5 6 6 6 6 5 5 4 3 3 3 4 4 3 3 3 2 2 3 3 3
0 0 0 0 1 1 1 1 1 1 1 2 2 3 2 2 3 3 3 3 4 4 5 6 6 6 6 5 5 4 4 3 3 3 3 3 3 3 3 3 3 3 4 4
0 0 0 1 1 1 1 1 1 2 2 2 2 3 3 3 3 3 3 3 4 4 5 6 6 6 5 5 5 4 3 3 3 3 4 4 5 5 5 5 4 4 4 4
0 0 1 1 1 1 1 1 2 2 2 2 2 3 3 4 4 4 4 4 4 5 6 7 7 6 5 5 4 3 2 2 2 3 4 5 6 6 7 7 6 6 6 6
0 1 1 2 2 2 2 2 2 2 2 3 3 3 4 4 5 4 4 5 5 6 6 7 6 6 6 5 4 3 2 2 2 2 3 3 5 6 7 7 7 7 7 7
1 1 2 2 3 3 3 3 3 3 3 3 4 4 4 5 5 4 5 5 6 6 6 6 5 5 5 4 4 3 2 2 2 2 2 2 3 4 5 6 6 7 7 8
3 3 3 3 4 4 4 4 4 3 4 4 4 4 4 4 4 4 5 5 6 6 6 6 5 4 4 3 3 3 3 3 2 2 2 2 3 4 5 5 6 6 6 7
4 4 4 4 5 5 5 4 4 4 4 4 4 4 4 4 4 4 4 5 6 6 7 6 5 3 3 3 2 2 2 2 2 2 2 2 3 4 4 4 4 4 4 4
5 5 5 4 5 5 5 5 4 4 5 4 4 4 5 5 4 4 4 5 7 8 8 8 6 3 2 2 2 2 2 1 1 2 2 2 2 3 2 2 2 1 1 2
5 5 5 5 6 6 6 5 5 5 5 5 4 5 5 5 5 4 4 5 8 9 10 9 7 4 3 2 2 2 2 1 1 2 2 2 2 2 1 1 0 0 0 0
5 6 6 6 7 7 7 5 5 5 5 5 5 5 5 5 4 4 4 5 8 10 11 10 8 5 3 3 2 2 2 1 2 2 2 2 2 1 1 1 1 0 0 0
5 5 5 5 5 5 5 4 4 4 4 5 6 5 4 4 4 3 3 5 7 10 11 11 9 6 4 2 2 2 2 2 2 2 2 1 1 1 1 1 1 1 0 0
4 4 3 3 3 3 3 3 3 3 4 6 6 5 4 4 4 4 4 4 6 8 9 9 8 6 3 2 2 2 2 2 2 1 1 1 1 1 1 1 1 1 1 0
4 3 3 3 3 3 3 2 2 3 4 5 5 4 4 4 4 4 4 4 6 7 7 7 6 5 3 2 2 1 1 1 1 1 1 1 1 1 1 1 1 1 1 0
3 3 3 3 3 3 2 2 2 2 3 3 3 3 3 3 4 4 5 6 6 7 7 6 5 4 3 2 2 1 1 1 1 1 1 1 1 1 1 1 1 0 0 0
2 2 2 3 3 3 2 2 2 1 1 2 2 2 2 3 4 5 6 6 6 6 6 5 4 3 3 2 1 1 1 1 1 1 1 0 0 1 1 0 0 0 0 0
2 2 2 2 2 2 2 2 2 1 1 1 1 1 2 3 4 5 6 6 5 5 4 3 2 2 2 2 1 1 1 1 1 1 0 0 0 0 0 0 0 0 0 0
2 2 2 2 2 2 2 1 1 1 1 1 1 1 2 2 3 3 4 4 3 3 2 2 2 2 2 1 1 1 0 0 0 0 0 0 0 0 0 0 0 0 0 0
2 1 1 1 1 1 1 1 1 1 1 1 1 1 2 2 2 2 2 2 2 1 1 1 1 1 1 0 0 0 0 0 0 0 0 0 0 0 0 0 0 0 0 0
1 1 1 1 1 1 1 1 1 1 1 1 1 2 2 2 2 2 1 1 1 1 1 1 0 0 0 0 0 0 0 0 0 0 0 0 0 0 0 0 0 0 0 0
1 1 1 1 1 1 1 1 1 1 1 1 1 2 3 2 2 1 1 0 0 0 0 0 0 0 0 0 0 0 0 0 0 0 0 0 0 0 0 0 0 0 0 0
1 1 2 1 1 1 1 1 1 1 1 0 1 1 2 2 2 1 1 0 0 0 0 0 0 0 0 0 0 0 0 0 0 0 0 0 0 0 0 0 0 0 0 0
2 2 2 1 1 1 1 1 1 0 0 0 0 1 2 2 2 1 1 1 0 0 0 0 0 0 0 0 0 0 0 0 0 0 0 0 0 0 0 0 0 0 0 0
2 2 1 1 1 1 1 0 0 0 0 0 0 1 2 2 2 1 1 1 1 1 1 0 0 0 0 0 0 0 0 0 0 0 0 0 0 0 0 0 0 0 0 0
Wind_Speed
8 4 10 14 15 15 15 12 10 8 7 4 3 4 5 6 8 9 10 10 10 10 9 9 8 8 7 7 6 6 6 5 5 4 4 4 4 4 3 3 3 3 3 4
10 8 9 11 13 15 15 13 11 9 6 1 3 4 6 7 8 10 10 10 10 10 10 9 9 8 8 8 7 6 6 6 5 4 4 4 4 4 4 4 4 4 4 5
11 10 10 13 12 13 13 12 11 10 5 4 4 5 6 7 8 9 9 10 10 10 10 10 9 9 8 8 7 6 6 6 5 5 4 4 5 5 5 5 5 5 5 5
9 10 14 6 5 9 10 10 8 7 4 4 3 4 4 5 7 7 8 9 9 9 10 10 10 9 9 9 8 7 6 6 5 5 5 4 5 5 5 5 5 5 5 6
9 13 10 6 6 9 9 8 6 6 4 4 6 6 5 4 6 7 8 8 8 9 10 10 10 10 9 8 8 8 7 6 5 5 5 5 5 5 4 5 5 5 6 6
10 13 12 8 7 5 8 8 5 5 5 6 8 8 5 6 6 7 8 8 9 9 10 10 10 10 10 9 8 7 7 6 6 5 5 5 5 5 5 5 5 6 7 7
12 11 7 5 6 8 10 4 4 4 5 6 5 1 6 7 7 8 9 10 10 10 10 10 10 10 9 8 8 7 7 7 6 5 5 5 6 6 6 6 7 7 7 7
11 12 7 5 7 6 2 4 2 3 3 3 3 5 6 7 8 9 10 10 11 10 9 9 10 10 9 8 8 8 8 7 7 6 5 6 6 6 6 6 7 7 6 6
4 2 6 3 3 3 2 2 2 2 3 4 5 6 6 6 7 9 9 9 9 10 10 9 8 9 9 9 8 9 9 8 7 7 6 6 6 6 5 4 4 5 5 5
4 5 4 4 3 2 2 1 1 1 3 5 5 6 6 6 7 8 9 9 9 10 9 9 8 8 8 9 9 9 9 8 7 7 7 6 4 4 3 3 3 4 4 4
4 5 5 4 3 3 3 2 3 3 4 4 5 6 6 6 7 7 7 8 8 8 8 9 8 8 9 9 9 9 8 8 7 7 7 6 5 4 3 4 4 2 3 3
4 4 3 4 2 2 2 2 3 4 4 4 4 5 6 6 6 7 7 7 7 8 8 9 9 8 8 8 9 8 8 7 6 6 6 6 7 7 11 9 9 9 9 5
2 2 2 2 1 1 2 2 3 3 3 4 4 5 6 6 6 6 7 7 8 8 8 8 8 8 8 8 8 8 7 6 5 5 6 6 6 6 7 6 7 8 7 7
2 3 3 2 2 2 3 3 3 4 3 3 4 5 6 6 6 7 7 7 7 7 8 8 8 8 8 8 7 7 7 7 6 5 5 5 6 6 5 6 7 6 6 6
2 2 2 2 2 2 3 3 3 3 4 4 4 5 5 6 7 7 7 7 7 7 7 7 7 7 7 8 7 7 6 6 5 5 5 5 5 5 5 6 5 6 7 7
2 3 3 3 3 2 3 3 3 3 3 4 4 5 5 6 6 6 6 7 7 7 7 7 7 7 7 7 7 6 5 6 6 5 5 6 5 5 5 5 5 5 5 5
4 4 4 4 3 2 2 2 2 2 3 3 4 5 5 6 7 6 6 6 6 6 6 6 6 6 7 7 7 6 6 7 7 6 5 5 5 5 5 5 5 5 4 4
4 4 4 3 3 2 2 2 2 2 3 3 4 5 5 6 6 6 6 7 7 6 6 5 6 6 7 7 6 5 6 6 6 5 5 5 5 5 4 4 5 5 5 6
4 4 4 3 3 3 3 2 3 2 3 3 4 5 5 5 5 6 7 7 7 7 6 6 6 6 7 7 6 5 6 7 6 5 5 5 5 4 4 4 4 4 4 4
4 4 4 3 3 3 3 3 3 3 3 4 4 5 5 5 5 6 6 5 4 4 6 7 7 6 6 7 5 6 6 7 6 6 5 5 5 4 4 4 4 4 4 4
3 4 4 3 3 3 3 3 3 3 3 4 4 4 5 5 5 5 5 5 4 5 6 6 5 5 5 6 6 5 6 6 6 6 5 5 5 4 4 4 4 4 4 4
3 3 4 3 3 2 2 3 3 4 4 4 4 5 5 6 6 5 4 3 5 5 4 5 4 5 5 5 5 5 6 6 5 5 5 4 5 4 4 4 4 4 4 4
2 3 3 3 3 3 3 3 4 4 4 4 4 4 5 4 4 4 4 4 5 4 4 4 6 7 5 5 4 5 6 6 5 5 5 5 4 4 4 4 4 3 3 3
2 3 3 3 3 4 4 4 4 4 4 4 4 4 5 4 4 3 4 6 5 5 5 6 8 7 5 4 4 5 5 5 5 5 5 5 5 4 3 3 3 3 3 4
3 3 3 4 3 3 4 4 5 5 5 4 5 4 3 3 4 4 5 7 7 7 6 7 7 6 5 4 4 5 5 4 4 3 4 4 4 4 4 3 3 3 3 3
3 3 2 3 3 3 3 3 3 3 4 4 4 4 4 4 5 5 5 7 8 6 6 6 6 6 5 5 5 5 5 6 6 4 4 4 4 3 3 3 3 2 2 2
4 3 3 3 3 3 3 3 3 3 3 4 5 4 4 5 5 6 7 7 7 6 5 5 5 5 4 4 5 5 4 4 4 4 3 3 3 3 3 3 2 2 2 2
Wind_Direction
240 220 198 200 200 205 220 232 238 227 236 222 188 167 159 155 153 154 156 157 155 153 146 144 142 141 136 130 127 127 129 124 121 126 123 121 118 111 105 105 104 95 91 84
212 208 209 210 207 207 216 227 236 238 225 178 148 153 164 166 166 163 160 159 157 154 150 149 147 144 138 133 133 135 131 124 122 124 128 124 117 111 104 97 90 90 85 81
204 196 207 213 208 208 212 221 230 231 219 169 167 176 181 175 174 167 161 160 158 158 156 154 152 147 142 136 135 133 129 127 129 131 126 120 117 109 103 100 97 93 88 84
204 194 216 195 185 207 213 216 225 235 218 203 179 162 165 175 174 167 161 159 157 158 156 153 149 145 141 138 137 136 134 132 131 130 123 119 112 104 103 102 99 96 92 89
212 209 205 170 184 201 205 205 208 219 203 175 150 156 147 158 171 166 159 155 154 155 151 147 147 145 143 143 141 140 138 137 136 134 128 125 115 109 110 110 105 101 95 91
215 222 214 185 161 191 210 202 182 204 190 173 183 204 144 138 149 150 146 145 144 143 142 144 146 146 148 147 144 141 138 135 133 132 131 126 119 113 111 112 109 104 95 88
215 220 210 125 147 184 212 170 143 183 185 186 197 359 109 134 136 141 142 143 142 140 139 140 144 148 149 145 141 135 133 129 128 127 128 124 117 110 115 115 108 101 99 94
214 220 187 127 177 198 79 71 115 156 167 167 130 114 127 129 134 140 143 145 146 142 139 141 146 148 145 142 136 133 133 131 132 133 133 125 120 115 115 118 120 115 113 108
215 188 78 122 112 78 79 85 96 135 147 149 144 137 133 129 135 140 143 146 146 141 139 143 148 147 142 138 136 135 132 128 126 125 122 123 125 127 130 135 134 129 128 120
158 131 121 117 104 93 70 57 58 133 143 148 141 136 135 133 134 138 142 145 145 143 143 141 145 145 138 138 141 140 135 132 132 131 126 119 122 129 132 133 134 131 128 122
165 137 135 132 104 79 69 75 93 104 118 131 133 134 136 135 137 140 142 143 145 147 145 143 145 146 144 145 148 145 141 139 139 136 128 120 103 68 78 71 45 63 112 121
171 147 170 129 106 86 87 90 96 102 110 120 129 132 134 134 136 140 140 140 141 143 143 144 146 146 146 148 151 151 149 149 146 142 139 137 128 107 58 62 67 57 43 50
74 99 94 109 108 97 100 96 97 100 112 122 120 124 129 131 136 138 139 143 144 145 144 143 145 145 148 151 154 156 152 148 145 146 147 147 143 139 132 105 81 70 64 65
122 122 135 136 112 103 107 105 101 102 115 123 124 127 131 135 138 140 143 143 143 143 143 145 146 147 151 155 158 157 156 147 151 153 155 154 150 148 146 146 145 134 109 101
187 186 162 146 144 132 132 126 115 120 127 127 132 140 144 144 143 141 141 141 142 143 144 147 147 146 151 156 159 161 160 154 153 150 151 151 152 153 149 149 143 138 138 134
193 177 168 172 169 165 165 153 144 145 145 143 144 144 144 141 139 138 143 149 150 148 146 146 143 144 150 154 156 155 149 141 150 153 156 158 159 157 152 153 150 149 150 143
208 198 189 188 192 193 182 166 161 161 157 150 144 141 143 144 141 143 150 149 144 140 144 145 142 143 150 158 161 154 149 149 161 165 159 158 158 160 161 161 156 153 142 122
230 229 219 209 209 198 181 172 167 165 160 156 152 151 154 157 154 150 148 142 138 137 141 142 139 146 152 157 160 154 154 157 166 163 156 156 160 164 161 156 155 153 145 144
209 207 205 209 209 203 201 193 182 169 157 158 161 158 154 150 147 148 149 150 151 152 148 136 140 153 151 152 159 160 158 155 155 152 148 148 166 160 153 155 156 155 151 150
197 195 197 202 196 191 187 178 172 168 160 156 158 158 153 151 150 153 154 154 152 139 138 142 154 147 148 154 173 160 160 160 157 154 154 157 159 156 155 158 155 151 151 155
186 187 187 183 177 179 173 167 167 162 156 155 158 158 149 146 149 154 158 146 127 126 137 148 157 149 152 153 183 163 158 159 156 154 156 157 157 158 157 157 156 154 157 162
176 172 171 169 165 158 159 158 159 155 149 142 144 147 144 144 145 142 133 127 130 133 152 157 152 131 138 164 168 158 156 156 156 154 155 157 159 161 162 163 161 161 165 167
160 155 153 151 145 142 141 139 139 143 141 137 139 145 146 141 143 149 144 133 140 151 159 136 120 127 152 180 165 161 160 158 158 160 156 156 160 162 163 165 164 166 171 179
158 148 144 141 141 143 136 128 123 123 127 129 130 135 145 144 138 131 122 124 124 144 129 113 126 141 178 173 158 158 155 155 158 162 160 160 162 161 160 167 174 180 184 193
138 137 138 144 147 135 126 126 124 124 126 124 127 133 141 136 135 129 125 127 133 140 129 127 138 157 174 157 152 149 147 143 142 150 156 161 164 163 168 179 188 187 187 193
133 133 127 129 123 126 135 130 123 129 131 127 123 122 120 119 124 129 130 132 131 134 137 140 151 165 158 148 147 147 149 152 160 170 164 167 168 165 166 173 175 183 190 194
123 115 115 113 111 112 115 118 122 127 127 127 123 122 125 127 130 132 135 138 141 142 139 138 142 143 144 147 141 142 146 152 157 161 165 172 172 175 167 169 177 177 191 180